Flag for France Weather past 2 weeks in Bastia, Corsica, France

Now
86 °F

Passing clouds.


Feels Like: 89 °F
Forecast: 68 / 84 °F
Wind: 8 mph from South

Location: Bastia Airport

Current Time: Jul 1, 2015 at 3:19:25 PM

Latest Report: Jul 1, 2015 at 3:00 PM


Visibility: N/A

Pressure: 30.09 "Hg

Humidity: 55%

Dew point: 68 °F

Location of BastiaLocation

Historic Weather in Bastia — Graph

°F

Bastia temperature yesterday

Maximum temperature yesterday: 88 °F (at 4:30 PM)
Minimum temperature yesterday: 68 °F (at 6:00 AM)
Average temperature yesterday: 78 °F

Past Weeks' High & Low Weather Summary

 TemperatureHumidityPressure
High88 °F (Jun 30, 4:30 PM)94% (Jun 16, 5:16 PM)30.12 "Hg (Jun 16, 5:16 PM)
Low59 °F (Jun 17, 3:30 AM)28% (Jun 25, 12:30 PM)29.77 "Hg (Jun 23, 4:00 PM)
Average73 °F69%29.99 "Hg
* Reported Jun 16 2:19 PM — Jul 1 2:00 PM, Bastia, Weather by CustomWeather, © 2015

Note: Actual official high and low records may vary slightly from our data, if they occured in-between our weather recording intervals... More about our weather records

Advertising

Bastia weather history for previous 24 hours

 ConditionsComfort  
Time TempWeatherWind HumidityBarometerVisibility
2:00 PM
Wed, Jul 1
86 °FPassing clouds.9 mph59%30.09 "HgN/A
1:30 PM86 °FPassing clouds.8 mph59%30.09 "HgN/A
1:00 PM86 °FPassing clouds.8 mph52%30.12 "HgN/A
12:30 PM86 °FPassing clouds.8 mph52%30.12 "HgN/A
12:00 PM84 °FPassing clouds.9 mph62%30.12 "HgN/A
11:30 AM84 °FPassing clouds.8 mph58%30.12 "HgN/A
11:00 AM86 °FPassing clouds.8 mph55%30.09 "HgN/A
10:30 AM84 °FPassing clouds.7 mph55%30.09 "HgN/A
10:00 AM84 °FSunny.3 mph58%30.09 "Hg10 mi
9:30 AM82 °FSunny.3 mph55%30.09 "Hg10 mi
9:00 AM81 °FSunny.3 mph62%30.09 "Hg10 mi
8:30 AM79 °FSunny.1 mph61%30.09 "Hg10 mi
8:00 AM75 °FSunny.3 mph65%30.09 "Hg10 mi
7:30 AM73 °FSunny.3 mph69%30.09 "Hg10 mi
7:00 AM72 °FSunny.2 mph73%30.09 "Hg10 mi
6:30 AM68 °FClear.5 mph78%30.09 "Hg10 mi
6:00 AM68 °FClear.5 mph78%30.09 "Hg10 mi
5:30 AM68 °FClear.3 mph78%30.09 "Hg10 mi
5:00 AM68 °FClear.2 mph78%30.09 "Hg10 mi
4:30 AM68 °FClear.3 mph78%30.09 "Hg10 mi
4:00 AM68 °FClear.5 mph78%30.09 "Hg10 mi
3:30 AM68 °FClear.3 mph83%30.09 "Hg10 mi
3:00 AM70 °FClear.3 mph78%30.09 "Hg10 mi
2:30 AM68 °FClear.3 mph83%30.09 "Hg10 mi
2:00 AM70 °FClear.5 mph78%30.09 "Hg10 mi
1:30 AM70 °FClear.3 mph83%30.09 "Hg10 mi
1:00 AM72 °FClear.5 mph73%30.09 "Hg10 mi
12:30 AM72 °FClear.3 mph78%30.09 "Hg10 mi
12:00 AM73 °FClear.1 mph83%30.09 "Hg10 mi
11:30 PM
Tue, Jun 30
75 °FClear.5 mph78%30.09 "Hg10 mi
11:00 PM75 °FClear.6 mph69%30.09 "Hg10 mi
10:30 PM73 °FClear.3 mph78%30.09 "Hg10 mi
10:00 PM75 °FSunny.No wind74%30.07 "Hg10 mi
9:30 PM75 °FSunny.2 mph78%30.07 "Hg10 mi
9:00 PM77 °FSunny.3 mph74%30.07 "Hg10 mi
8:30 PM81 °FSunny.3 mph66%30.07 "Hg10 mi
8:00 PM82 °FSunny.3 mph58%30.07 "Hg10 mi
7:00 PM84 °FPassing clouds.No wind51%30.07 "HgN/A
6:30 PM84 °FPassing clouds.5 mph51%30.07 "HgN/A
6:00 PM84 °FPassing clouds.6 mph51%30.07 "HgN/A
5:00 PM86 °FPassing clouds.7 mph49%30.07 "HgN/A
4:30 PM88 °FPassing clouds.6 mph49%30.07 "HgN/A
4:00 PM86 °FPassing clouds.5 mph49%30.07 "HgN/A
3:00 PM86 °FPassing clouds.6 mph52%30.09 "HgN/A
Weather by CustomWeather, © 2015

See weather overviewHow to use our weather pages